Wind_Speed
36 37 36 35 35 36 38 38 38 38 38 38 39 39 40 41 42 43 43 44 44 45 45 45 46 46 47 47 47 47 47 47 47 48 48 48 48 49 49 48 47 45 43 42 40 38 37 36 36 35 33 32 32 33 34 35 36 37 38 38 38 37 37 38 38 39 39 40 41 41 41 42 42 41 41 40 40 40 39 39 38 37 36 36 37 37
32 35 36 36 37 38 39 40 40 40 40 40 40 41 41 41 42 42 43 43 43 44 44 44 45 46 47 47 47 47 46 46 46 47 46 46 47 48 48 47 45 42 40 39 37 36 36 35 35 33 31 30 29 29 29 30 31 32 33 34 34 34 34 34 35 35 36 37 38 39 41 42 42 42 41 41 41 41 41 40 39 38 38 38 38 38
25 28 32 34 37 39 41 43 43 43 43 43 44 44 43 42 42 42 43 43 43 43 43 44 45 46 47 48 48 47 46 46 46 46 46 46 47 47 47 47 45 42 39 38 37 36 36 35 35 34 33 31 30 29 29 29 30 30 30 31 31 31 31 31 31 32 32 33 34 36 38 40 41 41 41 41 42 42 42 42 41 40 39 39 39 39
22 22 24 28 33 38 42 45 46 47 46 46 46 45 45 44 43 44 43 43 43 43 43 44 45 46 47 48 48 46 45 45 45 46 46 47 47 48 48 48 46 44 41 39 38 37 37 36 36 35 34 33 32 32 32 32 32 31 31 30 30 30 30 30 30 30 31 31 32 33 36 38 39 40 40 41 42 42 42 42 41 40 40 40 40 40
21 20 20 21 24 30 37 42 45 47 47 47 46 46 46 46 46 46 45 45 44 44 44 44 45 46 47 47 46 45 44 44 45 45 46 47 48 49 49 49 48 47 45 43 41 40 39 38 38 37 36 35 35 35 36 36 36 35 34 33 32 31 31 31 31 31 31 31 32 33 34 36 38 39 39 40 41 42 42 42 41 40 41 41 41 41
17 17 17 17 18 21 25 31 37 42 45 47 47 47 48 48 48 48 47 47 46 46 46 45 45 45 46 46 44 43 42 43 44 45 46 48 49 50 50 50 50 49 48 47 46 44 43 43 42 41 40 39 38 38 39 39 39 39 38 37 35 34 34 33 33 33 33 33 34 34 35 37 38 38 38 39 40 41 42 42 42 42 42 42 42 42
13 13 13 14 15 17 18 20 25 31 38 43 46 48 48 49 49 49 49 49 49 48 47 45 44 44 44 44 43 42 41 42 43 45 46 48 49 50 51 51 51 50 50 50 49 49 49 48 47 46 45 44 43 42 42 42 42 42 42 41 40 39 37 37 36 36 36 36 36 37 37 38 39 39 39 39 40 41 42 43 43 43 43 43 43 43
14 12 11 11 11 12 13 14 14 18 25 33 40 44 47 48 49 49 50 50 50 49 47 45 44 44 44 44 43 43 43 43 44 45 47 49 50 51 52 52 52 52 52 53 53 54 54 54 53 52 51 50 49 48 48 47 47 46 46 45 45 44 42 41 40 40 39 39 39 39 40 40 41 41 40 40 40 41 42 43 44 44 45 45 46 46
19 16 13 11 11 10 9 9 10 11 14 20 27 35 41 45 47 49 49 49 49 48 47 46 45 45 45 45 45 45 45 45 46 47 49 50 52 53 54 55 55 55 56 56 57 58 59 59 59 58 58 57 57 56 55 54 53 52 51 50 49 49 48 46 45 44 43 43 42 42 42 43 43 43 42 42 42 42 43 43 44 45 46 47 48 49
22 21 18 15 14 14 14 11 8 7 10 14 18 23 29 35 39 43 46 48 49 49 48 47 47 47 47 48 48 48 49 49 49 50 51 52 53 55 56 58 59 59 60 60 61 62 64 65 65 65 65 65 65 65 64 63 62 60 58 56 54 53 52 51 50 49 48 47 46 46 45 45 45 45 44 43 43 43 44 45 45 45 47 48 49 50
25 24 23 21 20 18 18 17 15 10 6 8 12 15 17 20 22 24 28 33 38 43 47 50 51 51 51 52 52 52 52 53 53 53 54 54 55 56 57 59 61 62 63 63 64 64 66 68 69 69 70 70 70 70 69 69 68 66 64 61 59 58 57 55 54 53 52 51 50 49 48 48 47 47 46 45 44 45 46 47 47 47 47 47 47 47
26 26 26 25 25 23 22 20 19 16 11 4 6 11 13 11 9 7 8 10 15 22 29 38 46 52 55 56 56 56 56 56 56 56 57 57 57 58 58 59 61 61 62 63 63 63 64 65 66 66 66 66 66 67 67 67 67 67 66 64 63 62 62 61 59 58 57 55 54 52 51 50 49 48 47 47 46 46 48 49 50 50 48 48 47 46
24 26 26 26 25 24 22 21 20 19 16 10 5 2 4 4 3 2 3 3 4 6 11 18 27 39 48 54 57 58 58 58 58 58 59 59 59 59 60 60 61 61 61 61 61 62 61 61 60 59 59 59 59 59 60 60 61 62 63 64 65 66 66 65 64 63 61 59 56 54 52 51 51 50 50 49 49 49 50 52 53 52 50 48 47 46
22 24 25 24 22 20 19 18 18 19 19 17 15 13 13 13 12 10 7 5 4 4 6 9 13 21 31 40 48 53 56 58 59 59 60 60 60 60 60 61 61 62 62 62 62 62 61 59 57 56 55 55 55 55 55 56 57 59 61 63 65 66 65 65 64 63 62 59 56 54 53 53 53 53 53 53 52 52 53 54 54 52 49 48 47 46
21 22 22 21 18 16 14 14 15 18 19 20 21 22 22 22 21 19 16 14 11 7 5 6 9 11 14 21 30 39 45 48 50 53 56 59 61 61 61 61 62 62 62 62 63 62 61 59 57 56 55 54 54 54 54 55 56 58 60 61 62 62 61 60 60 60 58 56 54 53 53 53 55 56 56 56 54 54 53 52 50 48 46 46 45 45
19 19 19 18 16 14 13 13 15 18 20 21 23 24 24 24 23 23 22 22 20 16 13 10 5 4 5 5 11 21 29 32 33 35 40 47 54 58 60 61 62 62 62 62 62 61 60 58 57 56 56 56 56 56 56 56 57 58 59 59 59 58 56 56 55 55 54 53 52 52 53 54 56 57 57 56 54 52 50 47 44 42 41 42 42 43
16 16 16 15 15 16 16 16 17 19 20 22 23 23 23 23 24 25 25 26 26 25 24 20 16 10 6 6 9 13 18 20 21 23 27 33 40 47 51 55 58 61 61 62 61 60 59 58 57 56 56 56 57 57 57 57 57 57 57 57 56 55 54 53 52 52 51 51 51 52 53 55 56 57 55 53 50 47 44 41 39 38 39 40 41 42
15 14 14 15 17 19 20 21 22 22 23 24 25 25 24 24 25 26 27 27 28 28 28 26 24 21 18 16 12 8 6 9 12 16 21 28 33 36 40 44 49 54 58 60 60 59 58 57 56 56 56 56 56 57 57 57 56 56 55 55 54 53 52 51 51 51 50 50 51 52 54 55 56 55 52 49 45 42 40 38 38 38 39 40 41 42
16 15 15 17 19 21 22 23 24 25 27 28 28 28 27 27 27 27 27 28 28 27 28 28 27 27 25 26 22 15 9 12 13 13 15 22 28 31 32 33 38 45 51 55 58 59 58 57 56 56 56 56 56 56 56 56 55 55 54 54 54 53 52 51 51 51 51 51 52 53 54 55 55 53 50 47 44 41 40 39 40 40 41 42 43 44
17 17 17 18 20 22 23 24 24 25 27 28 29 29 29 29 28 28 28 27 27 27 28 28 28 29 30 31 28 22 17 17 17 17 16 16 21 26 28 28 31 36 42 49 54 57 58 59 58 58 57 57 56 56 56 56 55 55 55 55 54 53 52 51 51 51 51 51 52 54 55 55 54 53 51 48 46 45 44 43 43 43 44 44 45 46
18 18 19 19 20 22 24 25 25 26 27 28 29 29 30 29 29 29 28 28 28 28 28 28 29 30 32 33 32 27 23 22 21 20 20 18 17 19 22 26 28 31 35 42 47 52 55 57 58 59 59 59 58 57 57 56 55 55 54 54 53 52 52 51 51 52 52 52 53 54 55 55 55 54 53 51 50 50 49 49 48 48 48 48 48 48
18 19 20 20 20 22 23 25 26 26 27 27 28 29 29 29 30 30 30 29 29 29 29 30 31 33 34 35 35 32 27 23 20 19 21 21 19 15 14 19 23 27 30 35 40 45 48 52 54 56 57 57 57 56 54 52 51 50 50 49 49 50 50 51 52 53 53 54 54 55 56 56 56 55 55 55 54 54 54 53 52 51 50 50 50 49
17 18 19 20 20 21 22 23 24 25 25 26 26 27 28 29 30 30 31 31 31 31 32 33 34 35 35 36 36 33 29 23 18 17 20 23 22 18 13 13 15 19 23 28 33 38 42 46 49 51 52 53 52 51 49 48 46 45 45 46 47 48 50 52 53 55 56 56 56 56 56 57 57 58 57 57 57 56 55 54 52 52 51 50 50 49
18 19 20 20 21 21 21 22 22 22 23 24 25 26 27 28 29 29 30 30 30 31 32 33 34 34 35 34 34 33 31 25 19 16 17 21 22 19 14 13 13 14 16 21 27 32 37 41 44 46 47 48 48 48 47 46 45 45 45 46 48 49 51 53 54 56 57 57 57 57 57 57 58 58 57 56 55 54 52 51 50 50 50 49 48 47
19 20 21 22 21 21 20 20 19 19 19 20 21 22 24 24 25 26 26 26 27 27 28 29 30 31 31 32 32 33 32 29 23 19 18 21 23 20 15 12 12 12 12 15 20 26 31 36 39 40 42 43 44 44 44 44 45 45 46 46 47 48 49 50 52 53 54 55 55 54 54 54 54 54 53 52 51 49 49 48 48 48 48 47 46 45
20 22 22 22 21 19 18 17 17 16 16 15 16 17 18 19 20 21 21 21 21 21 22 23 25 26 28 30 31 32 32 30 27 25 24 25 27 26 21 17 15 14 12 11 14 19 24 28 31 33 35 36 37 38 39 40 41 41 42 42 42 43 43 44 45 45 46 47 47 47 47 47 47 47 47 46 46 46 46 46 46 46 45 45 44 43
23 23 22 21 19 17 16 15 14 14 13 12 12 12 13 14 16 17 17 17 16 16 18 19 21 23 25 27 28 29 29 30 30 29 28 27 28 28 26 22 20 18 15 12 11 13 17 20 23 25 26 27 28 29 31 32 33 34 34 35 35 35 36 37 37 38 38 39 39 40 41 41 42 42 43 43 43 44 44 44 44 43 43 42 42 41
25 23 21 18 16 15 13 13 12 12 11 10 9 9 9 11 13 14 15 14 14 15 16 16 18 20 22 24 25 26 27 28 27 26 24 22 21 22 23 21 20 19 17 14 12 11 11 13 15 17 18 19 20 21 23 25 26 27 28 29 30 31 31 32 33 33 34 34 35 36 37 38 38 39 40 41 41 41 42 41 41 41 41 41 41 41
24 22 19 16 14 13 12 12 11 10 10 9 9 8 7 8 10 12 13 13 13 13 14 15 16 18 20 21 23 23 24 23 19 16 15 13 15 17 16 16 16 16 17 17 15 13 10 9 10 11 13 14 15 17 18 20 22 24 25 26 28 29 29 30 31 31 31 32 33 34 35 35 36 37 38 39 39 39 39 39 40 40 40 41 41 42
23 20 18 16 14 13 12 11 10 9 9 9 9 8 8 7 8 8 10 10 11 12 14 14 15 16 18 19 20 21 19 16 12 10 10 11 15 17 16 15 15 15 15 17 17 16 13 10 8 8 9 10 11 12 13 15 17 20 22 25 27 28 29 29 29 29 30 30 31 32 33 34 35 36 36 37 37 38 38 39 39 40 40 41 42 42
22 20 18 17 16 15 14 12 11 10 9 9 9 9 9 9 9 8 8 8 10 12 13 14 14 15 15 17 18 18 16 14 11 10 10 12 15 17 18 19 19 18 17 17 16 15 13 10 8 6 6 6 7 8 8 10 11 14 16 19 23 25 27 28 29 29 29 30 31 32 32 33 34 34 35 36 36 37 38 39 40 40 41 42 42 42
21 19 18 18 17 16 16 15 14 12 11 10 9 9 9 10 10 10 10 10 11 12 13 14 14 14 14 15 16 17 17 17 15 12 10 10 12 13 14 16 18 19 19 18 18 18 15 13 12 11 9 9 10 10 10 10 10 10 11 13 16 19 23 26 28 29 30 30 31 32 32 33 33 34 35 35 36 37 38 39 40 41 42 42 42 42
20 19 18 18 18 18 17 17 17 16 15 13 11 10 9 9 9 10 11 12 12 13 14 15 16 16 16 17 18 19 20 21 19 15 11 11 12 11 10 11 13 15 17 17 18 19 19 20 21 21 20 19 18 17 17 15 14 12 12 12 12 14 16 20 24 27 29 31 32 32 33 33 33 34 34 35 36 37 39 40 41 41 42 42 42 42
20 19 19 19 19 19 19 19 19 19 18 17 15 13 11 9 9 9 10 11 12 13 14 15 17 18 19 20 21 22 23 23 21 18 14 15 16 15 12 11 11 12 13 16 18 19 20 21 23 24 25 26 25 24 23 21 19 17 16 15 15 14 14 15 19 23 27 30 31 32 33 33 33 34 34 35 36 37 38 39 40 41 42 42 42 42
21 20 20 20 20 21 21 21 21 21 21 20 19 17 14 12 10 9 9 10 11 12 13 15 16 18 19 21 22 24 25 24 22 19 17 18 20 20 17 15 13 11 11 13 16 19 21 22 22 22 23 25 27 28 27 26 24 22 21 19 19 17 14 13 15 18 23 27 30 31 32 32 33 33 34 34 35 36 37 38 39 40 41 42 42 42
21 20 20 21 21 22 22 22 22 22 22 21 21 20 18 16 14 12 10 10 10 11 12 13 15 16 18 20 21 23 25 25 22 20 19 20 21 22 22 20 17 14 12 12 14 17 21 23 23 23 22 24 25 27 28 28 27 26 24 23 22 20 17 14 13 15 19 23 27 29 31 31 32 32 33 33 34 34 35 36 38 39 40 41 42 42
21 21 21 21 22 22 23 23 23 22 22 22 21 20 20 19 17 15 13 12 11 11 11 12 13 14 16 18 20 22 24 24 23 21 20 20 21 22 24 24 22 18 17 16 15 16 18 21 24 24 24 25 25 26 26 27 27 27 26 25 24 23 20 17 14 14 16 20 24 27 29 30 31 31 31 32 32 33 34 35 36 38 39 40 41 41
21 21 21 21 22 22 23 23 23 22 22 22 21 21 20 19 19 18 17 15 14 13 13 13 13 14 14 16 18 20 21 21 20 18 17 18 19 21 23 25 25 23 21 20 18 17 17 20 23 25 26 26 26 26 26 26 26 26 26 25 25 24 23 20 17 15 15 18 21 25 28 29 30 31 31 31 31 32 33 35 36 37 38 39 40 40
21 22 22 22 22 23 23 23 22 22 21 21 21 20 20 20 19 19 19 19 17 16 14 14 14 14 14 15 16 17 17 17 16 14 12 12 14 16 19 21 23 24 23 22 20 19 18 19 21 24 26 27 27 27 26 26 25 25 25 25 26 26 26 23 20 18 16 17 19 22 26 29 30 31 31 31 32 33 35 36 37 37 38 38 39 40
22 22 22 22 22 22 22 22 22 21 21 21 21 21 20 20 20 21 21 21 20 18 16 14 14 14 14 14 14 14 14 14 14 12 10 9 10 11 14 16 18 20 21 22 22 21 20 19 19 21 23 25 27 27 27 26 25 24 24 25 27 28 28 26 23 21 18 17 18 20 24 27 30 31 32 33 34 35 37 38 39 39 39 39 40 42
21 22 23 23 22 22 21 21 21 21 21 21 21 21 21 21 22 23 22 22 22 21 19 17 15 13 13 13 13 13 12 13 13 13 12 10 9 10 11 13 14 16 17 19 21 21 21 20 20 20 21 23 25 27 28 27 25 24 24 25 27 29 30 29 27 25 22 19 18 19 21 24 28 30 33 35 36 36 38 39 40 40 40 41 42 45
22 23 24 23 23 22 22 22 21 21 21 21 21 21 21 22 23 24 24 24 24 23 22 21 19 17 15 13 12 11 11 11 12 12 13 12 12 11 11 12 12 13 14 16 17 19 20 21 21 20 20 21 22 25 27 27 26 24 24 24 26 28 30 31 31 29 25 22 20 19 20 22 25 28 32 35 37 38 39 40 41 41 42 43 44 45
23 24 23 23 23 22 22 22 22 22 21 21 21 21 22 22 23 24 24 25 24 24 23 23 22 22 20 18 16 13 11 10 11 12 13 13 14 13 13 13 12 12 12 14 15 16 17 18 19 20 20 20 21 23 25 26 25 25 24 23 24 25 26 30 32 31 28 25 23 21 21 22 24 26 29 33 36 38 40 40 41 42 42 44 45 47
24 24 23 23 22 22 22 22 22 22 22 22 22 22 22 22 23 24 24 25 24 24 23 23 23 23 23 22 20 17 14 12 11 11 11 12 13 14 15 16 15 14 14 14 15 15 15 14 15 15 17 18 20 22 23 24 24 25 25 24 23 24 26 27 29 29 28 26 24 22 22 23 24 26 28 31 34 37 39 41 41 42 43 44 46 47
24 24 24 23 23 23 23 23 23 22 22 22 22 22 22 22 23 24 24 25 25 24 24 23 23 23 24 24 24 22 19 16 14 12 11 10 11 12 13 15 15 15 15 16 16 16 15 14 14 14 14 16 19 21 23 24 24 24 24 25 25 25 26 26 26 26 25 25 24 23 23 24 26 28 29 31 34 36 39 41 42 43 44 45 47 48
25 26 25 25 25 25 25 24 23 23 22 22 22 22 22 22 22 23 24 24 25 25 24 24 23 22 22 23 25 25 24 21 18 15 13 12 10 10 11 12 13 14 16 17 18 18 17 16 16 14 13 14 16 19 21 23 24 24 24 24 25 25 26 25 25 25 25 24 24 23 23 24 27 30 32 34 35 37 39 41 43 44 46 47 48 50
27 27 27 27 27 26 26 25 24 24 24 23 23 22 22 22 22 22 23 23 24 24 24 24 23 23 22 22 23 24 25 24 22 19 16 14 12 11 11 11 12 14 16 17 19 20 20 19 17 16 15 14 15 17 18 20 22 23 23 24 24 25 26 27 26 25 24 24 24 23 23 24 27 31 34 35 37 38 40 42 44 46 47 48 49 50
28 28 28 27 27 27 27 26 26 26 26 25 24 23 22 22 22 23 23 23 23 24 24 25 25 25 24 23 22 23 23 24 23 21 17 15 13 13 13 13 13 13 15 17 19 20 21 21 20 18 17 16 15 16 17 18 20 21 22 23 23 24 26 27 27 26 25 25 25 24 23 24 27 31 34 36 38 39 41 43 45 47 48 50 51 52
28 28 28 28 28 28 28 28 27 27 27 27 26 25 24 23 22 23 23 23 23 23 24 25 26 27 26 25 24 23 23 22 22 20 17 15 14 15 16 16 16 15 15 16 18 20 22 23 23 22 20 18 17 16 16 17 18 19 20 21 23 24 26 27 27 27 27 26 26 25 24 24 26 30 34 37 39 41 42 44 46 48 49 51 52 52
28 28 27 28 28 28 28 28 28 28 28 28 28 27 26 25 23 23 23 23 23 24 24 25 26 27 27 27 26 24 23 23 22 20 18 16 16 17 19 20 19 18 18 17 17 18 20 22 24 25 24 22 20 19 18 18 17 18 19 20 22 23 25 27 28 28 28 28 27 26 25 24 26 29 34 37 39 41 43 45 47 49 50 52 52 53
29 28 28 28 28 28 28 28 28 28 28 28 28 28 28 27 26 25 24 24 25 25 25 25 25 26 27 27 27 26 25 24 23 21 20 17 17 19 21 21 20 20 20 20 19 19 19 20 22 24 25 25 23 20 19 19 18 19 19 20 21 22 23 26 28 29 29 29 28 27 26 25 26 29 33 37 39 41 43 45 48 50 52 53 54 54
Wind_Direction
253 252 252 253 254 256 257 256 256 255 254 253 253 253 253 254 254 255 255 255 254 254 253 253 253 253 252 252 251 250 248 247 245 244 243 241 241 240 240 239 238 235 231 229 227 227 228 229 231 233 234 235 237 238 239 240 240 241 242 243 245 247 249 251 252 253 253 253 252 251 249 248 247 246 246 247 248 249 249 250 250 251 252 252 253 252
260 257 254 253 253 253 254 254 253 251 251 250 250 251 251 251 252 253 253 253 253 253 253 252 252 252 252 251 250 249 247 245 243 242 240 238 237 236 236 235 235 233 231 229 228 227 227 228 229 230 232 234 236 238 239 240 241 241 241 242 243 245 247 250 252 254 255 256 255 255 253 252 249 248 247 248 248 248 248 248 249 249 250 252 252 252
268 264 259 255 253 252 252 252 251 250 250 250 250 250 249 248 249 250 250 251 251 251 252 252 252 252 251 251 250 249 245 243 240 239 237 235 234 233 232 232 232 233 232 231 229 228 228 228 229 230 232 234 236 239 241 242 243 242 242 242 242 243 244 247 251 254 256 258 260 260 258 256 253 251 250 249 249 249 248 248 248 248 249 250 252 251
268 267 264 260 257 254 252 252 252 251 251 250 250 249 247 246 246 247 247 248 248 249 249 250 250 251 252 252 251 248 244 240 237 235 234 233 232 230 229 229 230 232 233 232 231 230 229 229 230 231 233 236 238 241 243 244 246 246 246 245 244 244 244 247 249 253 257 260 263 264 263 260 257 254 252 251 251 250 249 248 247 248 248 249 250 250
265 263 264 261 260 259 258 255 254 252 251 250 248 247 246 245 245 245 245 245 245 245 246 246 248 250 252 253 251 247 242 238 235 233 232 231 230 229 229 229 229 230 231 231 231 231 231 231 232 233 235 237 239 242 244 245 247 248 249 250 250 249 249 249 251 253 256 259 263 265 266 264 261 257 255 253 252 251 249 248 247 247 248 248 249 248
266 261 260 255 255 259 261 260 257 254 251 249 247 246 245 245 245 244 244 243 243 243 243 243 245 247 251 251 249 245 241 237 235 233 232 231 230 229 229 229 230 230 231 230 230 230 231 232 234 236 237 239 241 243 245 246 247 248 250 251 252 252 252 252 253 254 256 258 260 263 265 266 265 262 259 256 254 251 249 247 247 247 247 248 248 248
275 266 266 259 253 250 252 257 260 258 254 250 248 247 246 246 246 245 245 244 244 243 243 242 242 245 248 249 247 243 241 239 237 236 234 233 232 231 231 231 232 232 232 231 230 229 230 231 233 235 237 239 241 243 245 247 248 249 250 251 252 253 253 253 254 255 256 257 258 260 262 265 266 266 264 261 257 253 250 248 247 247 247 247 248 248
303 291 286 281 273 259 244 241 249 257 257 253 249 247 247 247 247 247 247 246 245 244 242 240 241 243 245 245 243 241 240 240 240 239 238 236 235 234 234 234 235 235 235 234 232 231 230 231 232 234 236 238 240 241 244 246 248 250 251 252 252 253 253 254 255 255 256 257 258 258 260 261 263 265 266 265 262 257 254 250 247 246 244 244 245 246
320 315 309 310 314 309 283 251 234 234 243 249 249 248 247 247 247 247 247 246 245 244 241 239 239 240 241 241 240 239 238 239 240 240 240 240 239 238 237 238 238 239 239 239 237 235 234 234 234 235 237 238 239 241 242 244 246 249 251 252 253 253 253 253 254 255 256 257 257 258 258 259 259 261 262 264 264 262 258 255 250 245 240 238 237 239
321 320 318 319 323 326 321 312 292 254 234 236 241 245 248 248 248 247 247 245 245 244 241 239 238 238 238 237 237 236 236 237 238 239 240 241 241 241 241 241 241 242 242 242 242 241 239 239 239 240 241 242 244 244 244 245 246 247 249 251 252 252 252 252 253 254 255 256 257 257 257 257 257 258 258 259 261 263 262 259 255 248 240 235 232 231
322 320 320 321 321 322 322 324 329 330 304 238 223 223 230 238 244 248 250 249 248 247 245 242 240 239 238 237 236 236 236 237 237 238 240 241 242 243 243 244 244 244 244 244 244 244 244 244 245 245 246 248 248 249 249 248 248 247 247 248 249 250 250 250 251 252 253 255 255 256 256 256 256 256 256 256 257 259 260 260 258 253 245 237 232 228
325 324 323 323 324 324 324 326 330 334 334 313 194 187 193 205 219 238 254 259 257 255 253 250 247 244 242 241 240 239 239 239 240 241 242 243 244 245 246 246 246 245 245 244 244 245 246 247 248 249 249 250 250 251 250 250 249 247 246 245 245 246 247 247 248 250 251 252 253 254 254 254 254 254 254 253 253 254 255 257 257 254 248 241 235 230
326 326 327 327 328 330 333 338 338 333 325 328 330 276 231 232 249 264 238 239 248 256 257 255 252 249 246 245 244 244 244 244 244 245 245 246 247 247 247 247 246 246 245 245 245 245 246 247 247 248 249 249 249 249 249 248 247 245 243 242 243 244 245 246 247 249 250 250 251 251 251 251 251 251 251 250 250 250 250 252 253 252 248 244 238 232
328 329 330 332 334 337 342 348 342 330 322 321 321 319 312 311 313 313 302 286 265 247 244 245 247 248 248 248 248 248 248 248 248 248 249 249 249 249 249 248 247 247 247 246 246 246 246 246 246 246 246 246 246 246 246 245 243 242 241 241 242 243 245 247 249 250 250 249 248 248 249 249 249 249 249 248 247 247 247 249 250 249 246 243 240 236
329 330 330 333 336 339 343 341 330 318 312 310 311 312 313 312 312 312 313 313 313 310 284 253 236 235 247 251 250 247 245 245 246 248 249 250 251 251 250 250 249 249 248 248 247 247 247 246 245 245 244 244 243 243 243 242 242 242 242 243 244 245 247 249 251 251 250 248 247 246 246 247 247 247 248 247 245 245 246 247 248 247 244 242 241 239
326 327 328 330 330 328 324 319 312 306 303 303 305 308 311 313 313 312 313 313 314 319 324 325 302 224 197 201 217 223 225 228 233 239 243 247 249 251 251 250 250 250 249 248 248 247 247 246 245 245 244 243 242 241 241 241 242 243 243 244 246 248 251 253 253 251 248 247 245 245 245 245 245 246 246 245 244 243 245 246 247 247 246 244 244 242
320 321 322 322 319 313 307 304 302 301 300 301 302 306 310 315 316 315 314 313 312 313 316 323 325 313 255 204 188 196 206 214 223 230 232 237 242 246 249 249 249 249 250 249 248 247 246 246 245 244 244 243 242 241 241 242 243 244 245 246 248 251 254 255 253 249 247 245 244 244 243 243 244 244 244 243 242 243 244 246 247 248 249 248 247 246
312 311 311 309 306 303 302 302 302 302 303 304 306 307 310 313 315 315 315 314 313 312 312 313 314 310 296 284 263 232 221 241 248 243 233 231 234 238 243 246 248 249 249 248 247 246 246 245 245 245 245 244 243 242 242 243 243 244 245 247 250 254 256 255 252 248 245 244 243 242 241 241 241 242 241 240 241 242 245 247 249 250 251 251 250 249
307 304 304 303 301 300 301 303 306 308 309 310 311 312 312 312 313 314 313 313 313 312 312 310 308 306 301 292 279 271 302 309 305 291 263 243 234 232 235 240 244 246 247 248 247 247 246 246 246 246 246 246 245 245 244 245 245 246 247 250 253 256 256 254 250 246 244 242 241 239 238 238 238 238 237 237 238 241 244 247 249 250 251 251 251 251
307 305 305 305 304 304 304 305 307 309 310 310 310 309 309 309 309 309 310 311 311 311 309 308 305 302 299 296 291 291 307 320 325 322 307 279 253 238 233 234 239 243 245 247 248 248 248 248 248 248 248 248 248 248 248 248 249 250 251 253 255 256 255 252 248 244 241 239 237 236 235 235 235 235 234 235 237 239 242 245 247 249 250 250 251 251
311 311 310 307 308 309 309 307 306 305 305 305 305 305 305 305 305 306 306 308 309 308 307 305 302 299 298 297 297 301 309 322 331 333 325 309 284 258 241 236 236 240 243 246 248 250 250 250 251 251 251 251 251 251 252 252 253 253 254 255 256 256 254 250 246 241 237 235 233 233 233 233 233 234 234 236 238 240 242 245 246 247 248 248 249 249
314 314 312 309 308 308 306 303 300 299 299 301 303 304 303 303 302 303 303 304 305 304 303 300 298 297 297 297 298 300 306 317 328 334 328 317 308 293 267 247 241 240 243 245 248 249 251 252 253 253 254 254 254 255 255 256 256 256 257 257 257 256 253 250 245 241 237 234 234 234 234 234 235 236 237 239 241 243 245 246 246 246 246 246 247 247
319 315 313 310 308 306 303 300 299 299 299 300 300 300 298 298 298 298 299 299 299 299 298 298 298 298 298 297 298 300 303 309 320 327 323 317 316 315 308 284 265 254 249 246 247 248 249 250 252 253 254 255 256 257 258 258 258 259 259 258 257 256 253 249 245 241 239 238 237 237 238 238 239 240 242 243 245 246 247 246 245 244 244 244 244 244
321 316 313 312 311 310 308 307 305 304 303 302 299 296 294 294 293 293 294 295 296 297 298 299 300 300 299 299 300 300 299 301 307 311 310 308 306 306 307 306 298 285 268 254 248 247 246 246 247 249 251 252 253 254 256 257 258 258 258 257 255 253 250 247 244 242 241 241 242 242 242 243 243 244 245 245 246 246 245 244 243 241 241 241 241 241
316 312 311 313 313 313 311 308 305 303 302 301 301 300 299 297 296 295 295 296 298 300 302 304 304 303 303 302 301 299 296 296 297 296 291 291 290 288 290 299 304 301 288 265 254 249 246 244 244 245 247 248 248 249 250 251 252 252 252 251 249 247 245 243 242 242 242 243 243 244 244 244 244 244 244 243 243 242 241 240 239 238 238 238 238 238
311 312 315 316 316 314 310 306 302 298 295 295 298 302 304 304 302 301 300 300 302 305 308 308 306 305 305 304 302 300 298 297 296 293 289 289 288 287 287 296 303 303 298 277 260 253 250 246 245 245 246 246 246 246 245 245 245 244 244 244 243 242 241 241 241 242 243 243 243 242 242 241 240 240 239 238 238 237 236 236 236 235 235 235 235 236
314 317 319 320 318 316 313 309 305 300 295 292 294 300 306 306 305 303 302 303 305 305 304 303 303 304 305 305 304 304 303 302 300 299 298 297 295 294 294 300 305 307 304 292 274 261 255 250 247 247 247 247 246 245 243 241 240 239 238 238 238 238 238 239 240 240 241 241 240 239 238 237 236 235 234 234 233 233 233 233 233 233 233 233 233 234
318 321 322 322 321 319 317 315 311 306 300 294 291 292 298 304 309 311 312 311 309 305 299 299 301 302 303 304 304 304 305 305 307 308 310 308 304 302 304 310 315 316 314 308 297 279 264 254 248 245 245 246 246 244 243 241 239 237 236 235 235 234 234 235 236 237 238 238 238 237 235 234 232 231 231 230 230 230 231 231 231 231 231 231 232 233
322 324 325 325 326 325 323 321 317 311 303 295 289 285 287 298 310 318 321 321 317 311 306 303 300 299 299 299 300 303 305 308 315 323 324 314 303 301 306 313 317 320 321 320 316 309 294 274 255 246 245 246 247 247 246 244 242 240 238 236 234 233 232 232 233 234 236 237 237 236 234 232 231 229 229 228 228 228 229 229 229 229 230 231 232 233
327 328 330 332 333 333 331 329 326 319 310 299 290 283 278 281 293 308 317 322 321 317 314 309 303 299 299 300 302 304 305 310 321 330 322 300 289 286 287 289 293 301 310 317 320 320 317 304 282 262 253 252 252 252 250 248 246 244 242 240 238 235 233 232 232 233 235 236 237 236 234 232 230 229 227 227 227 227 227 228 228 229 230 231 232 232
331 334 336 338 339 339 338 338 335 332 325 314 302 290 281 275 274 280 292 304 310 312 311 307 304 302 302 306 306 304 301 303 307 311 308 299 294 291 289 287 286 287 290 297 304 310 314 310 300 282 264 258 254 250 246 245 245 246 246 245 243 240 237 234 233 233 234 236 236 235 234 232 230 229 228 227 227 227 227 228 228 229 230 230 231 231
334 337 340 342 342 342 343 342 342 341 338 333 324 310 296 285 278 275 277 283 292 298 300 300 299 297 295 297 296 294 290 287 284 286 295 300 302 301 297 295 294 293 289 287 287 289 292 289 284 276 268 261 254 248 243 242 243 244 246 250 251 248 243 238 235 234 234 235 235 235 234 232 231 230 229 229 229 229 229 229 229 229 229 229 229 229
334 338 340 342 343 344 344 345 345 344 343 343 340 334 322 307 295 286 281 279 282 287 293 295 295 293 289 285 281 279 276 273 270 269 275 285 291 291 287 288 291 294 295 294 290 286 282 281 279 277 273 268 263 258 254 251 251 252 254 260 265 263 255 246 239 236 234 234 234 234 233 233 232 231 231 231 231 231 230 230 229 229 228 227 226 226
333 337 339 341 342 344 345 345 345 345 344 344 344 343 339 331 319 306 296 288 284 283 286 290 293 294 291 287 281 276 272 269 267 267 268 275 280 282 277 275 277 285 294 298 299 296 292 288 286 284 281 277 271 266 263 262 261 261 263 268 274 276 271 259 248 241 237 235 235 234 233 232 232 232 232 232 232 231 230 229 228 227 226 225 224 223
332 335 338 340 341 342 342 343 343 343 343 343 343 343 343 340 335 326 315 305 296 289 286 286 288 289 291 291 288 284 279 275 273 270 268 271 277 280 279 274 272 276 286 294 298 298 295 294 293 292 289 286 279 273 269 268 268 268 269 271 276 279 278 271 259 249 243 239 237 236 234 233 232 232 232 232 231 230 229 228 226 225 223 222 221 221
333 336 338 340 340 340 339 340 340 341 341 341 342 342 343 342 339 335 328 320 311 303 297 291 286 284 284 285 287 287 285 283 281 277 272 271 274 278 280 276 273 272 276 283 290 292 291 290 290 292 292 290 285 280 274 272 272 273 274 275 277 279 279 276 267 257 249 244 241 239 237 234 233 233 232 232 231 230 228 226 224 222 220 220 220 220
332 336 338 339 338 337 336 337 338 339 339 340 341 342 342 341 340 338 334 328 321 314 308 301 293 287 282 281 281 283 285 286 286 283 278 274 272 274 277 276 274 272 274 279 283 287 289 288 287 286 286 286 286 285 282 279 277 277 277 277 279 280 280 278 272 264 255 249 245 242 239 237 235 234 233 233 231 229 227 224 221 219 217 217 218 220
332 336 337 337 335 334 334 336 337 338 339 339 341 342 341 340 339 338 336 333 329 323 317 309 302 294 288 283 280 280 281 284 286 286 283 277 272 272 274 276 275 274 274 277 279 282 286 288 286 282 280 282 285 287 286 284 282 279 278 279 280 281 281 280 277 272 263 253 246 242 239 238 237 236 235 233 230 227 222 219 216 215 215 216 217 219
334 335 336 335 333 332 333 335 337 337 338 340 341 341 340 339 338 336 335 334 333 330 325 316 308 301 295 290 285 282 281 281 282 282 280 273 269 269 273 277 278 277 277 276 276 276 278 283 283 281 278 279 281 284 286 284 282 280 279 279 279 279 279 279 279 278 272 262 251 243 238 236 235 235 235 233 229 223 218 214 212 212 213 214 216 217
334 334 333 332 331 331 333 335 336 337 338 339 340 340 340 339 338 337 335 334 334 334 331 324 314 306 301 296 291 287 282 278 275 272 268 263 262 266 271 276 279 281 281 279 276 273 272 273 275 277 277 277 277 278 280 280 279 278 278 278 278 278 276 277 278 278 277 271 260 249 240 235 232 231 231 230 226 221 216 212 209 209 211 212 212 212
334 333 332 331 330 331 333 334 335 336 337 338 340 341 342 341 341 340 338 336 336 336 336 333 325 315 307 301 295 290 284 277 272 267 263 257 256 260 266 270 276 283 284 281 277 273 270 268 268 270 273 275 275 275 275 275 275 275 274 275 276 276 277 277 276 277 277 275 270 260 249 240 234 230 227 225 223 220 216 212 209 209 209 210 211 210
336 335 334 332 332 332 333 333 334 334 335 338 340 342 343 343 342 341 340 340 339 340 340 339 335 329 322 314 307 300 292 283 275 268 264 260 258 258 260 263 270 277 281 280 276 272 268 265 263 264 266 270 273 274 272 272 272 272 272 272 273 276 277 276 274 274 274 275 275 271 262 252 242 234 228 223 220 218 216 213 210 209 209 209 210 211
340 337 335 334 333 333 333 333 333 334 336 338 340 341 343 344 343 343 342 342 342 341 340 338 336 334 330 326 321 316 308 297 286 277 271 268 266 264 263 264 266 270 273 275 274 271 267 264 262 262 263 266 270 272 271 270 270 270 270 270 271 273 275 275 274 273 273 273 273 272 268 261 253 243 234 227 221 217 214 212 211 210 210 209 209 210
341 339 337 336 334 333 333 334 335 335 337 338 339 340 341 343 344 344 343 343 342 341 340 339 337 335 332 330 328 325 319 313 304 294 285 278 274 271 269 268 268 267 265 268 272 275 274 271 270 270 271 271 270 269 267 267 267 267 268 268 268 268 269 271 273 273 273 272 271 269 266 262 258 252 243 234 225 219 214 212 211 211 211 210 210 210
343 342 341 339 338 337 338 338 337 336 337 338 338 339 340 343 344 344 343 343 342 341 341 341 340 337 335 333 331 329 325 321 317 312 305 296 287 280 277 275 273 270 265 264 268 274 280 281 281 281 282 280 276 270 265 261 260 262 264 265 266 267 267 269 270 271 271 270 268 266 262 257 253 248 243 236 229 222 217 213 212 211 211 211 210 210
347 346 345 344 343 343 343 341 339 338 338 338 338 339 340 342 343 344 343 342 342 343 342 342 341 339 336 333 332 331 330 327 324 321 317 313 306 298 290 284 278 273 268 265 265 269 275 280 283 284 284 283 281 275 268 261 257 257 259 262 264 266 266 266 266 266 266 265 264 262 258 252 245 239 235 232 228 223 219 215 213 212 212 211 211 211
350 349 348 347 346 345 344 343 342 342 342 341 340 340 341 342 343 343 342 342 342 342 342 341 341 340 337 335 333 333 333 332 330 327 325 322 318 312 306 298 285 273 268 264 263 264 268 274 279 283 285 287 288 285 279 269 262 258 258 259 262 264 264 264 263 262 262 261 260 259 256 249 239 232 229 227 225 222 219 216 215 213 212 212 212 212
350 350 349 348 348 347 347 346 346 346 346 344 342 341 341 342 343 343 343 342 342 343 342 341 340 338 337 335 334 334 334 334 334 333 332 331 328 323 316 308 296 282 271 264 261 260 262 265 270 275 279 284 287 288 286 280 272 266 262 262 262 263 264 263 262 261 261 260 258 256 253 248 239 231 225 223 220 218 216 215 214 213 212 212 212 212
350 349 348 348 348 348 348 348 348 348 346 345 344 343 342 343 343 344 344 343 343 343 342 340 339 339 338 336 335 334 334 334 333 333 335 338 338 334 326 318 308 296 283 272 263 259 257 258 259 262 268 275 281 285 286 282 278 274 271 268 267 265 265 264 263 261 260 259 257 255 252 248 243 235 227 221 217 215 214 213 213 212 212 212 213 213
350 349 348 347 347 347 347 348 347 347 345 345 345 344 343 343 343 343 343 343 343 343 342 340 339 338 337 336 334 334 333 332 330 328 329 331 333 330 325 320 315 309 301 291 281 272 265 260 257 256 257 263 271 280 285 284 281 276 273 270 268 266 266 265 263 261 260 258 256 254 251 248 244 238 230 222 217 214 213 213 212 212 212 212 213 213
348 347 347 347 346 346 346 346 345 344 344 343 343 344 344 343 343 343 343 343 343 342 341 340 338 337 335 334 333 332 331 329 326 323 321 320 317 315 312 312 312 313 312 310 305 299 292 283 274 265 257 255 260 271 281 286 285 282 277 272 268 266 265 263 262 261 259 257 255 253 250 247 243 237 231 223 218 214 213 212 211 211 212 212 212 212
Height
1424 1425 1425 1426 1426 1425 1424 1424 1424 1424 1424 1424 1425 1425 1425 1426 1426 1426 1427 1428 1429 1430 1430 1431 1432 1432 1433 1434 1435 1436 1438 1439 1440 1441 1442 1444 1445 1446 1447 1448 1449 1450 1451 1452 1453 1454 1455 1457 1458 1460 1461 1462 1463 1464 1465 1467 1468 1469 1470 1471 1472 1473 1473 1474 1475 1476 1477 1478 1478 1479 1480 1481 1482 1483 1485 1485 1486 1487 1488 1489 1490 1490 1491 1492 1493 1493
1422 1422 1423 1423 1423 1422 1420 1420 1421 1421 1420 1421 1421 1422 1422 1423 1423 1423 1424 1425 1425 1426 1427 1427 1428 1429 1430 1430 1431 1433 1434 1435 1436 1438 1439 1440 1441 1443 1444 1445 1446 1447 1448 1449 1450 1451 1452 1453 1455 1457 1458 1460 1460 1462 1463 1464 1465 1466 1467 1468 1469 1470 1471 1472 1473 1473 1474 1475 1475 1476 1477 1477 1479 1480 1482 1482 1483 1484 1485 1486 1487 1488 1489 1490 1490 1491
1420 1420 1420 1420 1420 1419 1417 1417 1417 1417 1417 1418 1418 1419 1420 1420 1420 1420 1421 1422 1422 1423 1424 1425 1425 1425 1426 1426 1427 1429 1430 1431 1433 1434 1435 1437 1438 1439 1441 1442 1443 1444 1445 1446 1447 1448 1449 1450 1452 1454 1455 1456 1458 1459 1460 1461 1463 1464 1465 1465 1466 1467 1468 1469 1470 1471 1472 1472 1473 1473 1474 1474 1475 1477 1478 1479 1480 1481 1481 1483 1484 1485 1486 1487 1488 1489
1417 1417 1417 1418 1417 1416 1415 1414 1414 1414 1414 1415 1415 1416 1416 1416 1416 1417 1417 1419 1420 1420 1421 1421 1422 1422 1422 1423 1424 1425 1426 1428 1430 1431 1432 1434 1435 1436 1437 1439 1440 1441 1442 1443 1444 1445 1447 1448 1449 1450 1452 1453 1455 1456 1458 1459 1460 1461 1462 1463 1464 1464 1465 1466 1467 1468 1469 1470 1470 1471 1471 1472 1473 1474 1475 1476 1477 1477 1478 1480 1481 1483 1484 1485 1485 1486
1415 1415 1414 1414 1414 1413 1413 1412 1412 1411 1411 1411 1412 1413 1413 1413 1413 1413 1414 1415 1416 1417 1417 1418 1419 1419 1419 1420 1420 1421 1423 1425 1426 1428 1429 1430 1431 1433 1434 1435 1436 1437 1439 1440 1441 1442 1444 1445 1446 1447 1449 1450 1452 1454 1455 1456 1457 1458 1459 1460 1461 1462 1462 1463 1464 1465 1466 1467 1468 1469 1469 1470 1470 1471 1472 1473 1474 1475 1476 1478 1479 1480 1481 1481 1482 1483
1412 1412 1411 1410 1410 1410 1410 1411 1410 1409 1409 1408 1408 1408 1409 1409 1410 1410 1411 1412 1412 1413 1413 1414 1415 1415 1416 1416 1417 1419 1420 1422 1423 1425 1426 1427 1428 1429 1430 1431 1433 1434 1435 1436 1437 1439 1440 1441 1442 1444 1445 1446 1448 1450 1451 1453 1454 1455 1456 1457 1458 1459 1460 1461 1462 1463 1464 1465 1465 1466 1467 1468 1468 1468 1469 1470 1472 1473 1474 1475 1476 1477 1477 1478 1479 1480
1410 1409 1409 1408 1407 1406 1406 1407 1409 1409 1407 1405 1405 1405 1405 1405 1406 1407 1407 1408 1409 1409 1410 1410 1412 1412 1413 1414 1415 1416 1418 1419 1420 1421 1423 1424 1425 1426 1427 1428 1429 1430 1431 1432 1434 1435 1436 1437 1439 1440 1441 1443 1444 1446 1447 1449 1450 1451 1453 1454 1455 1456 1457 1458 1459 1460 1461 1462 1463 1464 1465 1465 1465 1466 1466 1468 1469 1470 1471 1472 1473 1473 1474 1475 1476 1477
1407 1407 1407 1406 1404 1403 1403 1403 1404 1405 1406 1405 1403 1402 1402 1402 1403 1403 1404 1405 1406 1406 1407 1408 1408 1409 1410 1411 1413 1414 1415 1416 1417 1418 1420 1421 1422 1423 1424 1425 1426 1427 1428 1429 1430 1431 1432 1434 1435 1436 1438 1439 1440 1442 1443 1445 1446 1447 1449 1450 1451 1453 1454 1455 1456 1457 1458 1459 1460 1461 1462 1463 1463 1464 1464 1465 1466 1467 1468 1469 1470 1470 1471 1472 1473 1474
1407 1405 1405 1404 1403 1402 1401 1400 1400 1400 1400 1401 1401 1400 1400 1400 1400 1401 1401 1402 1402 1403 1404 1405 1405 1406 1407 1408 1410 1411 1412 1413 1414 1415 1416 1417 1418 1419 1420 1422 1423 1424 1425 1426 1427 1428 1429 1430 1431 1432 1434 1435 1437 1438 1440 1441 1442 1444 1445 1446 1448 1449 1450 1451 1452 1454 1455 1456 1457 1458 1459 1460 1461 1461 1462 1462 1463 1464 1465 1465 1467 1468 1469 1470 1470 1471
1406 1405 1404 1403 1403 1402 1400 1399 1398 1397 1396 1396 1397 1398 1400 1400 1400 1400 1400 1400 1399 1400 1401 1401 1402 1402 1403 1405 1406 1408 1409 1410 1410 1412 1413 1414 1415 1416 1417 1418 1419 1420 1421 1423 1424 1425 1425 1426 1427 1429 1430 1431 1433 1434 1435 1437 1439 1440 1441 1442 1444 1445 1446 1448 1449 1450 1451 1452 1454 1455 1456 1457 1458 1459 1459 1460 1460 1461 1461 1462 1464 1465 1466 1467 1467 1469
1405 1404 1403 1402 1402 1401 1401 1400 1398 1396 1395 1395 1395 1396 1399 1400 1400 1399 1400 1399 1399 1399 1399 1398 1398 1399 1400 1401 1403 1404 1405 1406 1407 1408 1409 1410 1411 1412 1413 1414 1415 1416 1417 1418 1420 1420 1421 1422 1423 1425 1426 1427 1428 1429 1431 1432 1434 1435 1437 1439 1440 1441 1442 1443 1445 1446 1447 1448 1450 1451 1452 1453 1455 1455 1456 1457 1458 1458 1459 1460 1461 1463 1463 1464 1465 1466
1404 1403 1402 1401 1401 1400 1400 1399 1398 1396 1395 1394 1393 1392 1392 1392 1393 1393 1393 1393 1394 1396 1397 1397 1396 1396 1396 1397 1399 1400 1402 1403 1403 1404 1405 1406 1407 1408 1409 1410 1410 1411 1412 1413 1415 1415 1416 1418 1419 1420 1421 1422 1423 1424 1425 1427 1429 1430 1432 1434 1435 1436 1437 1438 1440 1441 1443 1444 1445 1447 1448 1450 1451 1452 1453 1454 1455 1455 1456 1457 1458 1460 1460 1461 1462 1463
1403 1402 1401 1401 1400 1400 1399 1399 1398 1396 1394 1393 1391 1390 1389 1389 1389 1389 1389 1388 1388 1389 1390 1391 1392 1393 1393 1394 1395 1397 1399 1400 1400 1400 1401 1402 1403 1404 1404 1405 1405 1406 1407 1408 1409 1410 1411 1413 1414 1415 1416 1417 1418 1419 1420 1422 1424 1425 1427 1429 1430 1431 1432 1434 1435 1437 1438 1440 1441 1443 1444 1445 1447 1448 1449 1450 1451 1452 1453 1454 1455 1456 1457 1458 1459 1460
1402 1401 1401 1400 1400 1399 1399 1399 1399 1396 1394 1393 1392 1391 1390 1389 1389 1388 1387 1386 1385 1385 1386 1386 1386 1387 1390 1391 1393 1395 1396 1396 1396 1397 1397 1397 1397 1398 1399 1400 1400 1401 1402 1403 1404 1404 1406 1408 1409 1410 1411 1412 1413 1415 1416 1417 1419 1421 1422 1424 1425 1426 1428 1430 1431 1432 1433 1435 1436 1438 1440 1441 1443 1444 1445 1446 1447 1449 1450 1450 1451 1452 1453 1455 1456 1457
1401 1400 1400 1400 1399 1399 1399 1399 1398 1396 1395 1393 1392 1391 1390 1389 1388 1387 1386 1385 1384 1384 1384 1384 1384 1385 1387 1390 1393 1395 1396 1396 1395 1394 1393 1392 1392 1393 1395 1395 1396 1396 1398 1398 1399 1399 1401 1403 1405 1405 1406 1407 1409 1410 1411 1413 1415 1416 1418 1419 1421 1422 1424 1425 1427 1427 1429 1430 1432 1433 1435 1437 1438 1439 1440 1442 1443 1445 1445 1446 1447 1448 1449 1451 1452 1454
1401 1400 1400 1400 1399 1398 1398 1398 1397 1395 1395 1394 1392 1391 1390 1388 1387 1386 1386 1385 1384 1383 1382 1382 1382 1383 1386 1389 1391 1390 1390 1389 1389 1390 1389 1388 1388 1388 1390 1391 1391 1392 1393 1394 1394 1395 1397 1399 1400 1400 1402 1403 1404 1406 1407 1409 1411 1412 1414 1415 1417 1419 1420 1421 1422 1423 1424 1425 1427 1429 1430 1432 1434 1435 1436 1437 1439 1440 1441 1442 1443 1445 1446 1447 1449 1451
1400 1400 1400 1399 1398 1397 1396 1396 1395 1395 1394 1393 1392 1391 1390 1389 1387 1386 1385 1384 1383 1383 1382 1382 1382 1382 1382 1383 1382 1381 1381 1381 1381 1381 1381 1382 1383 1385 1386 1386 1387 1387 1388 1389 1390 1391 1393 1394 1395 1396 1397 1399 1400 1402 1404 1405 1407 1409 1410 1412 1413 1415 1416 1417 1418 1419 1420 1421 1423 1425 1426 1428 1429 1430 1432 1433 1435 1436 1437 1439 1440 1441 1443 1445 1446 1448
1400 1400 1399 1398 1397 1395 1395 1395 1394 1393 1393 1392 1390 1390 1389 1388 1387 1386 1385 1384 1383 1382 1381 1382 1383 1383 1382 1380 1379 1379 1379 1379 1379 1378 1377 1377 1379 1380 1383 1383 1383 1383 1384 1385 1386 1387 1389 1390 1391 1392 1393 1395 1396 1398 1400 1402 1403 1405 1406 1408 1409 1410 1411 1412 1413 1415 1416 1417 1419 1420 1422 1423 1425 1426 1428 1429 1431 1432 1434 1435 1436 1438 1440 1441 1443 1445
1399 1399 1398 1397 1395 1394 1394 1393 1393 1392 1391 1390 1389 1388 1387 1386 1386 1385 1384 1383 1382 1381 1380 1380 1381 1382 1382 1380 1379 1378 1379 1378 1377 1375 1375 1375 1375 1377 1379 1380 1380 1380 1380 1380 1382 1383 1385 1387 1388 1389 1390 1391 1393 1395 1396 1398 1399 1401 1402 1404 1405 1406 1407 1408 1409 1410 1412 1413 1415 1416 1418 1419 1421 1422 1424 1425 1427 1428 1430 1431 1433 1435 1436 1438 1440 1442
1398 1398 1397 1396 1395 1393 1392 1392 1391 1391 1390 1390 1389 1387 1386 1385 1384 1384 1383 1382 1381 1380 1379 1379 1380 1380 1380 1378 1378 1378 1379 1377 1375 1374 1373 1373 1373 1373 1375 1377 1377 1377 1377 1377 1378 1380 1382 1383 1384 1385 1387 1388 1389 1391 1392 1394 1395 1397 1398 1399 1400 1402 1403 1404 1405 1407 1408 1410 1411 1412 1414 1415 1417 1418 1420 1421 1423 1424 1426 1428 1430 1431 1433 1435 1437 1438
1397 1396 1396 1395 1394 1393 1391 1390 1390 1390 1390 1389 1388 1386 1385 1384 1383 1382 1381 1380 1380 1378 1378 1378 1378 1377 1377 1377 1377 1377 1377 1376 1375 1373 1372 1371 1371 1371 1372 1373 1374 1374 1375 1375 1376 1377 1378 1379 1380 1381 1382 1384 1385 1387 1388 1390 1391 1392 1394 1395 1396 1397 1399 1400 1401 1403 1405 1406 1407 1408 1410 1411 1413 1414 1416 1417 1419 1421 1422 1424 1426 1428 1430 1431 1433 1435
1397 1396 1395 1394 1394 1392 1391 1390 1389 1389 1388 1388 1387 1385 1384 1383 1382 1381 1380 1379 1378 1377 1376 1376 1375 1375 1376 1375 1375 1375 1375 1375 1374 1374 1372 1371 1370 1370 1371 1371 1371 1372 1372 1373 1374 1375 1375 1375 1376 1377 1378 1379 1381 1382 1384 1385 1386 1388 1389 1390 1392 1393 1394 1395 1397 1399 1400 1402 1403 1404 1405 1407 1409 1410 1412 1414 1415 1417 1419 1421 1423 1424 1426 1428 1429 1431
1397 1396 1395 1394 1393 1392 1390 1389 1388 1387 1387 1386 1385 1385 1383 1382 1381 1380 1379 1378 1377 1375 1374 1373 1373 1373 1373 1373 1373 1372 1372 1373 1374 1374 1373 1371 1369 1369 1369 1369 1370 1369 1369 1370 1371 1371 1372 1372 1373 1373 1374 1375 1377 1378 1379 1381 1382 1383 1385 1386 1387 1389 1390 1391 1393 1395 1396 1398 1399 1400 1402 1403 1405 1406 1408 1410 1412 1413 1415 1417 1419 1420 1422 1424 1425 1427
1396 1395 1394 1393 1392 1391 1390 1388 1387 1386 1385 1385 1384 1383 1382 1381 1380 1379 1378 1377 1375 1374 1372 1371 1370 1370 1370 1370 1370 1370 1370 1371 1373 1374 1374 1371 1369 1367 1367 1367 1367 1367 1367 1368 1368 1369 1369 1369 1370 1370 1371 1372 1374 1375 1376 1377 1379 1380 1381 1383 1384 1385 1387 1388 1390 1391 1392 1394 1395 1396 1398 1399 1401 1402 1404 1406 1407 1409 1411 1413 1415 1416 1418 1420 1421 1423
1395 1394 1393 1391 1390 1390 1388 1387 1386 1385 1384 1383 1382 1381 1380 1380 1379 1378 1376 1375 1374 1372 1371 1370 1369 1368 1368 1368 1367 1367 1367 1369 1371 1373 1372 1370 1367 1365 1364 1364 1364 1364 1365 1365 1366 1366 1366 1367 1367 1368 1369 1370 1371 1372 1374 1375 1376 1378 1379 1380 1381 1383 1384 1385 1386 1387 1389 1390 1391 1392 1393 1395 1396 1398 1400 1401 1403 1405 1407 1409 1411 1413 1415 1416 1418 1419
1394 1393 1392 1390 1389 1388 1387 1386 1385 1384 1383 1382 1381 1380 1380 1378 1377 1376 1375 1374 1372 1371 1370 1369 1368 1367 1366 1366 1365 1365 1365 1367 1369 1370 1370 1369 1366 1364 1363 1363 1363 1362 1361 1362 1363 1364 1364 1365 1365 1366 1367 1368 1369 1370 1371 1373 1374 1375 1377 1378 1379 1380 1381 1382 1383 1384 1385 1385 1386 1387 1389 1390 1392 1394 1395 1397 1399 1401 1403 1405 1407 1409 1411 1413 1414 1416
1392 1391 1390 1389 1388 1387 1385 1385 1383 1382 1382 1381 1380 1380 1379 1377 1376 1375 1374 1372 1371 1371 1370 1369 1367 1366 1365 1365 1364 1364 1365 1366 1367 1368 1368 1368 1366 1363 1362 1362 1362 1361 1360 1360 1360 1361 1362 1362 1363 1364 1365 1366 1367 1369 1370 1371 1372 1373 1374 1375 1376 1377 1378 1379 1379 1380 1381 1382 1383 1384 1385 1386 1388 1390 1392 1394 1396 1398 1400 1402 1404 1405 1407 1410 1411 1413
1391 1390 1389 1388 1386 1385 1384 1383 1382 1381 1380 1380 1379 1379 1378 1376 1375 1374 1372 1371 1371 1370 1369 1368 1367 1366 1365 1364 1364 1364 1365 1365 1365 1366 1366 1366 1365 1363 1362 1362 1362 1361 1360 1360 1359 1359 1359 1360 1360 1361 1363 1364 1365 1367 1368 1369 1370 1371 1372 1373 1373 1374 1375 1375 1376 1377 1378 1379 1380 1381 1382 1383 1385 1387 1389 1390 1392 1394 1396 1398 1400 1402 1405 1406 1408 1410
1389 1388 1387 1386 1385 1384 1383 1382 1381 1380 1380 1379 1378 1377 1376 1375 1374 1373 1372 1371 1370 1370 1368 1368 1367 1366 1365 1364 1363 1363 1364 1365 1365 1365 1366 1366 1364 1363 1362 1362 1362 1362 1361 1360 1358 1357 1357 1357 1357 1358 1360 1361 1363 1364 1365 1366 1367 1368 1369 1370 1370 1371 1372 1373 1374 1375 1375 1376 1377 1378 1379 1381 1382 1384 1385 1387 1389 1391 1393 1395 1397 1400 1402 1403 1405 1406
1387 1386 1385 1385 1384 1383 1382 1381 1380 1380 1379 1378 1377 1376 1375 1374 1373 1372 1371 1370 1370 1369 1368 1367 1366 1365 1365 1364 1363 1363 1363 1364 1365 1365 1365 1365 1363 1361 1361 1361 1361 1361 1361 1360 1358 1357 1356 1355 1355 1356 1357 1359 1360 1362 1363 1364 1365 1366 1367 1368 1368 1369 1369 1370 1371 1372 1373 1374 1375 1376 1377 1378 1380 1381 1383 1384 1386 1388 1390 1392 1395 1397 1399 1400 1401 1403
1385 1385 1384 1383 1382 1382 1381 1380 1379 1379 1378 1377 1376 1375 1374 1373 1372 1371 1370 1370 1369 1368 1367 1366 1365 1365 1364 1364 1363 1363 1362 1363 1364 1364 1363 1362 1361 1360 1359 1359 1359 1359 1359 1359 1358 1356 1355 1354 1354 1355 1356 1357 1359 1360 1361 1362 1363 1363 1364 1365 1366 1366 1367 1368 1369 1369 1370 1371 1373 1374 1375 1376 1377 1378 1380 1382 1383 1385 1387 1390 1392 1394 1395 1396 1398 1399
1385 1384 1383 1382 1381 1380 1380 1379 1378 1377 1376 1376 1375 1374 1373 1372 1371 1370 1370 1369 1368 1367 1366 1365 1364 1363 1363 1363 1363 1362 1361 1361 1361 1361 1361 1361 1360 1358 1358 1358 1357 1357 1357 1357 1357 1356 1355 1353 1353 1353 1354 1355 1357 1358 1358 1359 1359 1360 1361 1362 1363 1364 1365 1366 1366 1367 1368 1369 1370 1371 1372 1373 1375 1376 1377 1379 1381 1383 1385 1386 1389 1390 1392 1393 1394 1396
1384 1383 1382 1381 1380 1379 1379 1378 1377 1376 1375 1375 1374 1373 1372 1371 1371 1370 1369 1368 1367 1366 1365 1364 1363 1362 1361 1361 1360 1360 1359 1358 1359 1359 1360 1360 1358 1357 1356 1356 1356 1355 1355 1355 1355 1355 1354 1352 1352 1352 1352 1353 1354 1355 1356 1357 1357 1358 1359 1359 1360 1361 1362 1363 1364 1365 1365 1367 1368 1369 1370 1371 1372 1374 1375 1376 1378 1380 1382 1384 1385 1387 1388 1390 1391 1393
1383 1382 1381 1380 1379 1378 1377 1376 1375 1375 1374 1373 1372 1372 1371 1370 1370 1369 1368 1367 1366 1366 1365 1364 1362 1361 1360 1359 1358 1357 1357 1357 1357 1358 1359 1359 1357 1356 1355 1355 1354 1354 1354 1354 1353 1353 1352 1351 1351 1351 1351 1352 1353 1354 1354 1355 1356 1356 1357 1358 1359 1359 1360 1361 1362 1362 1363 1365 1365 1367 1368 1369 1370 1371 1373 1374 1375 1377 1379 1380 1382 1384 1385 1386 1388 1390
1382 1381 1380 1380 1378 1377 1376 1375 1375 1374 1373 1372 1371 1370 1370 1369 1368 1368 1367 1366 1365 1365 1364 1363 1362 1361 1360 1358 1357 1355 1355 1355 1356 1358 1358 1357 1356 1355 1354 1354 1353 1353 1353 1352 1352 1352 1351 1350 1350 1351 1351 1351 1351 1352 1353 1354 1354 1355 1356 1357 1357 1358 1358 1359 1359 1360 1361 1362 1363 1364 1365 1366 1368 1369 1370 1371 1373 1374 1376 1378 1379 1381 1382 1384 1385 1387
1381 1380 1380 1379 1378 1376 1375 1374 1373 1372 1371 1370 1370 1369 1368 1367 1367 1366 1365 1365 1364 1363 1363 1362 1361 1360 1359 1358 1356 1355 1353 1353 1355 1356 1356 1356 1355 1355 1354 1352 1352 1352 1352 1351 1351 1351 1351 1350 1350 1350 1350 1350 1350 1350 1351 1352 1353 1354 1354 1355 1356 1356 1356 1357 1357 1358 1359 1360 1361 1362 1363 1364 1365 1366 1368 1369 1370 1372 1373 1375 1377 1379 1380 1381 1383 1384
1380 1380 1379 1378 1377 1376 1375 1373 1372 1371 1370 1369 1368 1367 1366 1366 1365 1365 1364 1363 1363 1362 1361 1360 1360 1359 1358 1357 1356 1354 1353 1353 1353 1354 1355 1355 1355 1354 1353 1351 1351 1352 1352 1351 1350 1350 1350 1350 1349 1349 1349 1349 1349 1349 1349 1350 1351 1352 1353 1354 1354 1355 1355 1355 1356 1356 1357 1358 1359 1360 1361 1362 1363 1364 1365 1367 1368 1370 1371 1373 1375 1376 1378 1379 1381 1382
1380 1379 1378 1377 1376 1375 1374 1373 1371 1370 1370 1368 1367 1366 1365 1364 1363 1363 1362 1361 1361 1360 1359 1358 1358 1357 1356 1355 1355 1354 1353 1353 1353 1353 1353 1354 1354 1353 1352 1351 1350 1350 1351 1350 1350 1349 1349 1349 1348 1348 1347 1347 1347 1348 1348 1349 1350 1350 1351 1352 1352 1353 1353 1354 1354 1355 1355 1356 1357 1358 1359 1360 1361 1362 1363 1365 1366 1368 1369 1371 1373 1375 1376 1378 1379 1381
1379 1378 1377 1376 1375 1374 1373 1372 1371 1370 1369 1368 1366 1365 1364 1363 1362 1361 1360 1360 1359 1359 1358 1357 1356 1355 1355 1354 1353 1353 1352 1352 1352 1352 1352 1352 1352 1352 1352 1351 1350 1350 1349 1349 1349 1349 1348 1348 1347 1347 1346 1346 1346 1346 1347 1347 1348 1349 1349 1350 1350 1351 1351 1352 1353 1353 1354 1355 1355 1356 1357 1358 1359 1360 1361 1362 1364 1365 1366 1368 1369 1371 1373 1375 1377 1380
1379 1378 1377 1376 1375 1374 1372 1371 1370 1369 1368 1367 1366 1365 1363 1362 1361 1360 1359 1358 1357 1357 1356 1355 1355 1354 1353 1352 1352 1352 1351 1351 1351 1350 1350 1350 1350 1350 1350 1350 1349 1348 1348 1348 1347 1347 1347 1346 1345 1345 1346 1346 1345 1345 1345 1346 1346 1347 1348 1349 1349 1349 1350 1350 1351 1352 1352 1353 1354 1354 1355 1356 1357 1358 1359 1360 1361 1362 1363 1364 1366 1368 1370 1371 1374 1376
1378 1377 1376 1375 1374 1373 1372 1371 1370 1369 1367 1366 1365 1364 1362 1361 1360 1358 1357 1356 1355 1355 1354 1354 1353 1352 1352 1351 1351 1350 1350 1350 1350 1350 1349 1349 1349 1349 1348 1348 1348 1347 1347 1346 1346 1345 1345 1345 1344 1344 1344 1344 1345 1345 1345 1345 1345 1346 1347 1347 1347 1347 1348 1349 1350 1350 1351 1352 1352 1353 1353 1354 1355 1356 1357 1358 1359 1360 1361 1362 1363 1365 1367 1368 1370 1372
1378 1377 1375 1374 1373 1372 1371 1370 1369 1368 1366 1365 1364 1363 1362 1360 1359 1357 1356 1355 1354 1353 1352 1351 1350 1350 1350 1350 1350 1350 1349 1349 1349 1349 1348 1348 1348 1347 1347 1346 1346 1345 1345 1345 1344 1344 1343 1343 1343 1342 1342 1343 1343 1344 1343 1343 1344 1344 1345 1345 1346 1346 1347 1347 1347 1348 1350 1350 1351 1351 1352 1352 1353 1354 1355 1356 1357 1358 1360 1360 1361 1362 1364 1365 1367 1369
1377 1376 1375 1373 1372 1371 1370 1369 1368 1367 1365 1365 1363 1362 1361 1360 1359 1357 1356 1354 1353 1352 1351 1350 1349 1348 1348 1347 1347 1348 1348 1348 1348 1348 1347 1347 1347 1346 1345 1345 1344 1344 1343 1343 1342 1342 1341 1341 1341 1341 1341 1341 1342 1342 1342 1342 1342 1342 1343 1344 1345 1346 1346 1345 1345 1347 1348 1349 1350 1350 1350 1351 1351 1352 1353 1354 1355 1357 1358 1359 1360 1360 1361 1363 1365 1367
1377 1375 1374 1373 1371 1370 1369 1368 1367 1365 1365 1363 1362 1361 1360 1359 1358 1357 1355 1354 1353 1352 1350 1350 1349 1348 1347 1346 1345 1345 1346 1346 1347 1347 1346 1346 1346 1345 1345 1344 1343 1342 1342 1342 1341 1340 1340 1340 1339 1340 1340 1340 1340 1340 1340 1340 1340 1340 1341 1342 1343 1344 1344 1344 1345 1345 1346 1347 1348 1349 1349 1350 1350 1351 1352 1353 1354 1355 1356 1356 1358 1359 1360 1361 1363 1365
1376 1375 1373 1372 1371 1370 1368 1367 1366 1365 1364 1363 1362 1360 1360 1359 1358 1356 1355 1354 1352 1351 1350 1349 1348 1347 1346 1345 1344 1343 1343 1344 1345 1345 1345 1345 1345 1344 1343 1343 1342 1341 1341 1340 1340 1339 1339 1338 1337 1337 1338 1338 1338 1338 1338 1338 1338 1339 1340 1340 1341 1342 1342 1343 1344 1345 1345 1346 1347 1348 1348 1349 1350 1350 1351 1351 1352 1353 1354 1354 1355 1356 1358 1360 1361 1363
1376 1374 1373 1371 1370 1369 1368 1366 1365 1364 1363 1362 1361 1360 1359 1358 1357 1356 1355 1353 1352 1350 1349 1349 1348 1347 1346 1345 1343 1342 1341 1341 1341 1342 1343 1343 1343 1342 1342 1341 1341 1340 1340 1339 1338 1338 1337 1337 1336 1335 1335 1335 1335 1335 1336 1336 1337 1337 1338 1339 1340 1340 1341 1342 1343 1343 1344 1345 1345 1346 1347 1349 1349 1349 1349 1349 1350 1351 1352 1352 1353 1354 1355 1357 1359 1361
1376 1374 1373 1371 1370 1369 1367 1366 1365 1364 1362 1361 1360 1360 1359 1358 1356 1355 1354 1353 1351 1350 1349 1348 1347 1346 1345 1345 1343 1342 1341 1340 1340 1340 1340 1340 1340 1340 1340 1339 1339 1338 1338 1337 1337 1336 1335 1335 1335 1334 1334 1334 1334 1334 1334 1335 1335 1336 1336 1337 1338 1339 1340 1340 1340 1341 1343 1344 1344 1345 1346 1348 1348 1348 1348 1348 1349 1350 1350 1351 1352 1353 1354 1355 1356 1358
1376 1374 1373 1371 1370 1368 1367 1366 1365 1363 1362 1361 1360 1359 1358 1357 1356 1355 1353 1352 1351 1350 1349 1347 1346 1345 1345 1344 1343 1342 1341 1340 1339 1338 1338 1339 1339 1338 1337 1337 1336 1336 1335 1335 1335 1334 1334 1334 1333 1333 1333 1333 1333 1333 1333 1334 1335 1335 1335 1336 1336 1337 1338 1338 1339 1340 1341 1342 1343 1344 1345 1346 1346 1347 1347 1347 1347 1348 1349 1349 1350 1351 1352 1353 1355 1356
1376 1374 1373 1371 1370 1369 1367 1366 1365 1363 1362 1361 1360 1358 1357 1357 1356 1355 1353 1352 1351 1350 1348 1347 1345 1345 1344 1343 1342 1341 1341 1340 1339 1338 1338 1337 1337 1336 1335 1335 1334 1333 1333 1332 1332 1332 1332 1332 1332 1332 1332 1332 1332 1332 1332 1332 1333 1334 1334 1335 1335 1335 1336 1336 1337 1338 1340 1340 1341 1342 1343 1344 1345 1346 1346 1346 1346 1346 1346 1347 1349 1350 1350 1352 1353 1355
1376 1375 1373 1372 1370 1369 1367 1366 1365 1363 1362 1361 1359 1358 1357 1356 1355 1354 1353 1352 1351 1350 1348 1347 1346 1344 1343 1342 1341 1340 1340 1339 1339 1338 1337 1337 1336 1336 1335 1334 1332 1332 1331 1330 1330 1330 1330 1330 1330 1330 1331 1331 1332 1331 1331 1331 1331 1332 1332 1333 1334 1334 1335 1335 1335 1336 1338 1339 1340 1341 1341 1343 1344 1345 1345 1345 1345 1345 1345 1346 1347 1348 1349 1350 1352 1353
1375 1374 1373 1372 1370 1369 1367 1366 1365 1364 1362 1361 1360 1358 1357 1355 1354 1353 1352 1351 1350 1349 1348 1347 1346 1345 1343 1342 1341 1340 1339 1339 1338 1337 1337 1336 1336 1335 1334 1333 1333 1332 1331 1330 1329 1329 1329 1329 1328 1328 1329 1330 1331 1331 1331 1330 1330 1331 1331 1331 1332 1333 1333 1334 1334 1335 1336 1337 1338 1339 1340 1341 1342 1343 1344 1344 1344 1344 1344 1344 1345 1346 1347 1348 1350 1351